Regional Weather Roundup
Issued by NWS Midland/Odessa, TX

Skip options and go directly to product.
Home | Oldest Version | Previous Version | Current Version | All | Text Only | Save Text | Print | Product List | Glossary On

Skip product version selection by date and time.   
149
ASUS44 KMAF 210210
RWRMAF
MIDLAND AREA WEATHER ROUNDUP
NATIONAL WEATHER SERVICE MIDLAND TX
900 PM CDT WED AUG 20 2014

...IN SOUTHWEST TEXAS AND SOUTHEAST NEW MEXICO...

CITY           SKY/WX    TMP DP  RH WIND       PRES   REMARKS
ALPINE         CLOUDY    71  65  79 SW10      30.11R
ANDREWS        FAIR      80  63  56 SE12      29.94R
ARTESIA        LGT RAIN  84  59  42 N13       29.90S
BIG SPRING     MOCLDY    84  64  51 S8        29.96R
CARLSBAD       CLOUDY    92  51  24 S9        29.87R
DRYDEN           N/A     88  62  41 S7        29.91S
FORT STOCKTON  CLOUDY    76  64  66 S15       29.95R
GUAD PASS      CLEAR     79  50  36 SW15      30.08R
HOBBS          PTCLDY    82  61  47 S25G31    29.95R
MARFA          CLOUDY    72  63  73 E8        30.10S
MIDLAND AIRPK  CLOUDY    80  69  68 S5        29.94R
MIDLAND INTL   CLOUDY    79  71  76 SE9       29.93R
ODESSA         CLOUDY    79  68  69 S7        29.94R
PECOS          CLOUDY    83  62  49 S17G23    29.88R
PRESIDIO       MOCLDY    83  63  49 W9G17     29.95R THUNDER
SEMINOLE       CLOUDY    82  63  52 S15G23    29.95R
SNYDER         CLEAR     88  65  46 SE17G24   29.93R
WINK           MOCLDY    84  62  47 S14       29.89S
$$
...OTHER STATIONS IN TEXAS...

CITY           SKY/WX    TMP DP  RH WIND       PRES   REMARKS
ABILENE        CLEAR     88  58  36 S13       29.92R
AMARILLO       CLOUDY    85  61  44 S17       29.91R
AUSTIN         PTCLDY    90  68  48 S15G24    29.92R
BROWNSVILLE    CLEAR     85  78  80 SE15      29.93R
CORPUS CHRISTI PTCLDY    85  77  77 SE18G28   29.94R
DALLAS FTW     PTCLDY    92  67  43 SE15      29.90R
DEL RIO        CLEAR     94  62  34 E10       29.84S
EL PASO        PTCLDY    88  47  24 W9        29.94R
HOUSTON INT    MOCLDY    84  75  74 S7        29.99R
LUBBOCK        MOCLDY    81  65  58 S18       29.93R
SAN ANGELO     CLEAR     87  59  38 S12       29.91R
SAN ANTONIO    PTCLDY    90  70  51 SE21      29.93R
WACO           CLEAR     87  66  49 SE17G28   29.91R
WICHITA FALLS  NOT AVBL
$$
...OTHER LOCATIONS IN NEW MEXICO...

CITY           SKY/WX    TMP DP  RH WIND       PRES   REMARKS
ALAMAGORDO     PTCLDY    82  50  32 CALM      29.95S
ALBUQUERQUE    PTCLDY    81  45  28 W7        30.02S
CANNON AFB     MOCLDY    78  58  49 S9        29.95S
CLOVIS           N/A     77  63  61 S5        29.98R
HOLLOMAN AFB   PTCLDY    86  51  29 S3        29.93R
ROSWELL        MOCLDY    85  57  38 N6        29.90R
RUIDOSO        PTCLDY    66  55  68 SW5       30.18R
SANTA FE       PTCLDY    73  42  32 W5        30.08R
TRUTH OR CONSE MOCLDY    83  46  27 CALM      29.99R
TUCUMCARI      CLEAR     87  52  29 SW14      29.88R
$$

USA.gov is the U.S. government's official web portal to all federal, state and local government web resources and services.